STARLINK-11561, 62908

Orbit data source: Space-Track

STARLINK-11561, 62908 is a payload satellite owned by SpaceX/Seattle (US) in LEO that was launched on Sat, 08 Feb 2025 UTC via an FALCON 9 launch vehicle from the Air Force Eastern Test Range (AFETR). Payload-class satellites include a variety of spacecraft equipped with specific instruments for various scientific and technological missions. These include communications satellites like Starlink; space stations such as the ISS; scientific satellites like the Hubble; Earth observation satellites from companies like Planet Labs, Umbra, and HawkEye 360; GPS; miniature CubeSats for education and research; and military/defense satellites.

Loading next visibility...
Identifier
62908, 2025-027B
Orbit
LEO
Country
Flag of USUS
Related business
Manufacturer
SpaceX/Seattle
Mission
Operational Commercial Communications
Bus & Motor
STARLINK V2MD, Unknown motor
Mass
960 kg wet, ~910 kg dry
Launch date (UTC)
2025-02-08 (7 months ago)
Launch vehicle
FALCON 9
Launch site
Air Force Eastern Test Range (AFETR)
Object type
Payload
Rocket body
Debris
Shape & HBR
Box + 2 Pan, 14.5 m
Radar Cross Section
36.964 m², Large (>1 m²)

Expand to show TLE details & history
Last TLE update: 18 hours ago

TLE from 18 hours ago
0 STARLINK-11561
1 62908U 25027B   25260.60735609  .00240252  00000-0  18063-2 0  9997
2 62908  42.9985 310.6912 0001337 272.1795  87.8920 15.71049422 35932
Epoch: 2025-09-17T14:34Z
TLE epoch observation values (Epoch: 2025-09-17T14:34:35.566Z)
Latitude
0.00002°
Longitude
95.26216°
Altitude
355.635 km
Speed
7.698 km/s
True Right ascension
20h 42m 45s
True Declination
0° 00' 00"
Sunlit
Object was in full shadow at epoch
Visualization orbit readout
Latitude
Unknown
Longitude
Unknown
Altitude
Unknown
Speed
Unknown
Apparent Right ascension
Unknown
Apparent Declination
Unknown
Sunlit
N/A
Visualization observer readout
Local Sidereal Time
01:45:34
Azimuth
Unknown
Elevation
Unknown
Doppler factor
Unknown
Orbital elements
Apogee altitude
358.779 km
Perigee altitude
356.978 km
Semi-major axis
6,736.016 km
Eccentricity
0.00013
Inclination
42.9985°
RAAN
310.6912°
Arg. of periapsis
272.1795°
True anomaly
87.90731°
Mean anomaly
87.892°
Eccentric anomaly
87.89966°
Mean motion
3.92589 °/min
Orbital period
91.7 mins
BSTAR
0.0018063
Loading maneuver chart data...
Computing Atmospheric mass density...
Loading historical data...
Loading historical data...
Loading historical data...
Loading historical data...
Loading historical data...
Loading historical data...
Loading historical data...

Documentation

Showing up to 5 results
|